Hamilton, OH

3:21 AM EDT on August 24, 2016 (GMT -0400)
Butler County Regional

Weather History for KHAO - April, 2007

Change the Weather History Date:

Tuesday, April 17, 2007

  Actual Average (KCVG) Record (KCVG)
Temperature  
Mean Temperature 51 °F 55 °F  
Max Temperature 70 °F 65 °F 87 °F (1896)
Min Temperature 33 °F 44 °F 19 °F (1875)
Degree Days  
Heating Degree Days 14 11  
Month to date heating degree days 227  
Since 1 July heating degree days 4720  
Cooling Degree Days 0 1  
Month to date cooling degree days 5  
Year to date cooling degree days 5  
Growing Degree Days 1 (Base 50)    
Moisture  
Dew Point 31 °F    
Average Humidity 48    
Maximum Humidity 82    
Minimum Humidity 25    
Precipitation  
Precipitation 0.00 in 0.13 in 1.31 in (1933)
Month to date precipitation 2.14  
Year to date precipitation 11.91  
Snow  
Snow 0.00 in 0.00 in 0.50 in (2001)
Month to date snowfall 0.4  
Since 1 July snowfall 22.0  
Snow Depth -    
Sea Level Pressure  
Sea Level Pressure 29.95 in    
Wind  
Wind Speed 5 mph (NW)    
Max Wind Speed 14 mph    
Max Gust Speed 23 mph    
Visibility 10 miles    
Events      
T = Trace of Precipitation, MM = Missing Value Source: NWS Daily Summary

Daily Weather History Graph

Daily Weather History Graph

Search for Another Location

Airport or City:

Trip Planner

Search our weather history database for the weather conditions in past years. The results will help you decide how hot, cold, wet, or windy it might be!

Date:

Astronomy

Apr. 17, 2007 Rise Set
Actual Time 6:58 AM EDT 8:17 PM EDT
Civil Twilight 6:30 AM EDT 8:45 PM EDT
Nautical Twilight 5:57 AM EDT 9:18 PM EDT
Astronomical Twilight 5:22 AM EDT 9:54 PM EDT
Moon 6:46 AM EDT (4/17) 9:00 PM EDT (4/17)
Length of Visible Light 14h 14m
Length of Day
13h 18m
New Moon, 0% of the Moon is Illuminated
Apr 17
New Moon
Apr 24
First Quarter
May 2
Full
May 10
Last Quarter
May 16
New

Hourly Weather History & Observations

Time (EDT) Temp. Windchill Dew Point Humidity Pressure Visibility Wind Dir Wind Speed Gust Speed Precip Events Conditions
12:53 AM 45.0 °F 41.2 °F 23.0 °F 42% 30.00 in 10.0 mi NW 6.9 mph - N/A   Clear
1:53 AM 42.1 °F 37.7 °F 25.0 °F 51% 30.01 in 10.0 mi WNW 6.9 mph - N/A   Clear
2:53 AM 39.9 °F 36.7 °F 25.0 °F 55% 29.99 in 10.0 mi WNW 4.6 mph - N/A   Clear
3:53 AM 39.0 °F 34.8 °F 26.1 °F 60% 29.98 in 10.0 mi WNW 5.8 mph - N/A   Clear
4:53 AM 37.0 °F - 26.1 °F 65% 29.99 in 10.0 mi Calm Calm - N/A   Clear
5:53 AM 37.9 °F 34.4 °F 26.1 °F 62% 30.00 in 10.0 mi NW 4.6 mph - N/A   Clear
6:53 AM 33.1 °F - 28.0 °F 82% 30.01 in 10.0 mi Calm Calm - N/A   Clear
7:53 AM 35.1 °F - 30.0 °F 82% 30.01 in 10.0 mi Calm Calm - N/A   Clear
8:53 AM 45.0 °F 42.6 °F 30.0 °F 56% 30.03 in 10.0 mi West 4.6 mph - N/A   Clear
9:53 AM 51.1 °F - 28.0 °F 41% 30.03 in 10.0 mi Variable 4.6 mph - N/A   Clear
10:53 AM 55.0 °F - 27.0 °F 34% 30.03 in 10.0 mi NNW 5.8 mph - N/A   Clear
11:53 AM 60.1 °F - 28.9 °F 31% 30.00 in 10.0 mi Calm Calm - N/A   Clear
12:53 PM 63.0 °F - 33.1 °F 33% 29.98 in 10.0 mi NNW 9.2 mph - N/A   Clear
1:53 PM 64.9 °F - 32.0 °F 29% 29.96 in 10.0 mi NW 10.4 mph - N/A   Clear
2:53 PM 66.9 °F - 30.9 °F 26% 29.94 in 10.0 mi WNW 9.2 mph - N/A   Clear
3:53 PM 69.1 °F - 33.1 °F 26% 29.90 in 10.0 mi Variable 3.5 mph 18.4 mph N/A   Clear
4:53 PM 69.1 °F - 32.0 °F 25% 29.88 in 10.0 mi NW 13.8 mph 23.0 mph N/A   Clear
5:53 PM 69.1 °F - 35.1 °F 29% 29.85 in 10.0 mi NW 11.5 mph - N/A   Clear
6:53 PM 69.1 °F - 35.1 °F 29% 29.85 in 10.0 mi NNW 10.4 mph - N/A   Clear
7:53 PM 64.9 °F - 36.0 °F 34% 29.86 in 10.0 mi NNW 4.6 mph - N/A   Clear
8:53 PM 55.0 °F - 39.0 °F 55% 29.85 in 10.0 mi Calm Calm - N/A   Clear
9:53 PM 50.0 °F - 39.9 °F 68% 29.85 in 10.0 mi Calm Calm - N/A   Clear
10:53 PM 48.9 °F - 41.0 °F 74% 29.85 in 10.0 mi Calm Calm - N/A   Clear
11:53 PM 46.9 °F - 37.9 °F 71% 29.84 in 10.0 mi Calm Calm - N/A   Clear